SCP
0 0 0 0 0 0 0 0 0 0 0 0 0 0 0 0 0 0 0 0 0 1 1 2 1 1 1 0 0 0 0 0 0 0 0 0 0 0 0 0 0 0 0
0 0 0 0 0 0 0 0 0 0 0 0 0 0 0 0 0 0 0 0 0 0 1 1 1 1 1 0 0 0 0 0 0 0 0 0 0 0 0 0 0 0 0
0 0 0 0 0 0 0 0 0 0 0 0 0 0 0 0 0 0 0 0 0 0 1 1 1 1 1 0 0 0 0 0 0 0 0 0 0 0 0 0 0 0 0
0 0 0 0 0 0 0 0 0 0 0 0 0 0 0 0 0 0 0 0 0 0 0 0 0 0 0 0 0 0 0 0 0 0 0 0 0 0 0 0 0 0 0
0 0 0 0 0 0 0 0 0 0 0 0 0 0 0 0 0 0 0 0 0 0 0 0 0 0 0 0 0 0 0 0 0 0 0 0 0 0 0 0 0 0 0
0 0 0 0 0 0 0 0 0 0 0 0 0 0 0 0 0 0 0 0 0 0 0 0 0 0 0 0 0 0 0 0 0 0 0 0 0 0 0 0 0 0 0
0 0 0 0 0 0 0 0 0 0 0 0 0 0 0 0 0 0 0 0 0 0 0 0 0 0 0 0 0 0 0 0 0 0 0 0 0 0 0 0 0 0 0
0 0 0 0 0 0 0 0 0 0 0 0 0 0 0 0 0 0 0 0 0 0 0 0 0 0 0 0 0 0 0 0 0 0 0 0 0 0 0 0 0 0 0
0 0 0 0 0 0 0 0 0 0 0 0 0 0 0 0 0 0 0 0 0 0 0 0 0 0 0 0 0 0 0 0 0 0 0 0 0 0 0 0 0 0 0
0 0 0 0 0 0 0 0 0 0 0 0 0 0 0 0 0 0 0 0 0 0 0 0 0 0 0 0 0 0 0 0 0 0 0 0 0 0 0 0 0 0 0
0 0 0 0 0 0 0 0 0 0 0 0 0 0 0 0 0 0 0 0 0 0 0 0 0 0 0 0 0 0 0 0 0 0 0 0 0 0 0 0 0 0 0
0 0 0 0 0 0 0 0 0 0 0 0 0 0 0 0 0 0 0 0 0 0 0 0 0 0 0 0 0 0 0 0 0 0 0 0 0 0 0 0 0 0 0
0 0 0 0 0 0 0 0 0 0 0 0 0 0 0 0 0 0 0 0 0 0 0 0 0 0 0 0 0 0 0 0 0 0 0 0 0 0 0 0 0 0 0
0 0 0 0 0 0 0 0 0 0 0 0 0 0 0 0 0 0 0 0 0 0 0 0 0 0 0 0 0 0 0 0 0 0 0 0 0 0 0 0 0 0 0
0 0 0 0 0 0 0 0 0 0 0 0 0 0 0 0 0 0 0 0 0 0 0 0 0 0 0 0 0 0 0 0 0 0 0 0 0 0 0 0 0 0 0
0 0 0 0 0 0 0 0 0 0 0 0 0 0 0 0 0 0 0 0 0 0 0 0 0 0 0 0 0 0 0 0 0 0 0 0 0 0 0 0 0 0 0
0 0 0 0 0 0 0 0 0 0 0 0 0 0 0 0 0 0 0 0 0 0 0 0 0 0 0 0 0 0 0 0 0 0 0 0 0 0 0 0 0 0 0
0 0 0 0 0 0 0 0 0 0 0 0 0 0 0 0 0 0 0 0 0 0 0 0 0 0 0 0 0 0 0 0 0 0 0 0 0 0 0 0 0 0 0
0 0 0 0 0 0 0 0 0 0 0 0 0 0 0 0 0 0 0 0 0 0 0 0 0 0 0 0 0 0 0 0 0 0 0 0 0 0 0 0 0 0 0
0 0 0 0 0 0 0 0 0 0 0 0 0 0 0 0 0 0 0 0 0 0 0 0 0 0 0 0 0 0 0 0 0 0 0 0 0 0 0 0 0 0 0
0 0 0 0 0 0 0 0 0 0 0 0 0 0 0 0 0 0 0 0 0 0 0 0 0 0 0 0 0 0 0 0 0 0 0 0 0 0 0 0 0 0 0
0 0 0 0 0 0 0 0 0 0 0 0 0 0 0 0 0 0 0 0 0 0 0 0 0 0 0 0 0 0 0 0 0 0 0 0 0 0 0 0 0 0 0
0 0 0 0 0 0 0 0 0 0 0 0 0 0 0 0 0 0 0 0 0 0 0 0 0 0 0 0 0 0 0 0 0 0 0 0 0 0 0 0 0 0 0
0 0 0 0 0 0 0 0 0 0 0 0 0 0 0 0 0 0 0 0 0 0 0 0 0 0 0 0 0 0 0 0 0 0 0 0 0 0 0 0 0 0 0
0 0 0 0 0 0 0 0 0 0 0 0 0 0 0 0 0 0 0 0 0 0 0 0 0 0 0 0 0 0 0 0 0 0 0 0 0 0 0 0 0 0 0
0 0 0 0 0 0 0 0 0 0 0 0 0 0 0 0 0 0 0 0 0 0 0 0 0 0 0 0 0 0 0 0 0 0 0 0 0 0 0 0 0 0 0
Wind_Speed
10 9 9 9 8 8 7 9 8 7 7 7 6 6 5 5 4 3 3 3 3 4 5 7 8 6 5 5 5 5 6 5 5 3 1 1 2 4 4 5 6 6 7
10 10 10 10 9 9 10 10 9 9 8 8 7 7 7 6 5 5 5 4 3 3 4 5 6 5 7 6 6 7 6 7 5 5 3 2 2 5 6 6 5 5 6
10 10 11 11 11 11 12 11 10 10 10 9 8 9 8 7 6 6 6 5 5 5 4 5 5 6 7 6 7 7 6 6 6 4 4 2 2 4 5 6 7 6 6
10 10 11 12 12 12 11 10 10 10 10 10 10 10 10 9 8 7 7 6 6 5 5 5 5 6 7 7 7 8 7 7 6 5 4 4 3 5 5 6 5 4 5
11 12 12 12 12 11 11 10 10 10 11 10 10 10 9 8 8 9 8 7 7 6 5 5 5 7 9 8 6 7 8 7 6 6 5 5 5 6 6 5 6 6 5
12 13 13 13 12 12 12 11 10 10 10 9 10 11 10 9 11 14 10 7 7 6 6 5 6 7 8 11 12 11 11 9 9 8 6 7 7 7 6 8 8 7 4
13 14 13 13 13 13 13 12 10 9 9 9 10 10 11 11 14 14 14 9 8 7 7 5 5 5 5 6 8 11 12 12 12 9 9 9 10 11 11 11 8 5 5
14 14 14 13 14 13 12 12 11 8 8 8 9 10 10 11 15 15 14 9 7 8 7 7 6 6 5 6 6 7 8 9 11 10 9 9 10 11 12 11 10 9 7
15 14 14 14 14 14 13 12 10 8 8 8 7 9 10 10 13 14 12 6 6 8 7 7 7 6 8 8 7 7 7 6 7 9 9 9 13 16 15 12 11 11 7
15 15 14 14 14 14 13 11 10 8 9 9 9 8 9 9 11 13 12 5 6 6 5 6 8 7 8 9 8 8 8 7 7 7 8 11 13 17 19 15 14 13 9
15 14 14 13 12 13 11 10 9 9 8 8 8 7 8 9 10 12 12 7 7 6 5 4 4 6 8 10 9 8 8 7 8 8 8 9 10 10 10 9 9 12 11
14 14 13 12 11 9 9 9 8 8 8 7 6 6 5 6 8 9 12 12 9 7 6 5 4 5 6 7 8 8 9 9 7 8 8 9 10 10 9 9 8 6 4
14 14 13 12 10 8 8 8 7 6 5 5 5 5 4 4 6 10 11 12 13 7 5 7 6 5 4 4 8 10 10 8 8 9 9 8 8 9 9 8 8 7 7
14 13 11 10 9 8 6 5 5 4 4 4 5 5 4 4 4 4 5 6 9 8 5 5 6 5 3 3 5 7 7 7 8 8 8 8 8 9 9 9 9 8 7
13 11 10 9 8 7 5 4 4 3 3 4 4 4 4 5 6 8 7 6 6 6 6 4 3 3 3 3 4 5 5 6 7 7 9 9 9 9 8 8 8 8 7
11 10 8 7 6 5 5 4 2 2 3 6 5 4 4 5 5 8 10 9 9 11 8 5 5 5 4 5 5 6 6 6 7 8 9 10 10 10 9 8 8 8 8
10 10 7 6 6 5 4 3 3 2 2 1 1 4 4 3 3 5 7 9 10 11 6 6 6 5 5 5 6 6 6 6 7 9 9 9 10 10 10 10 9 8 7
10 10 8 6 5 4 4 3 2 2 1 1 2 2 1 2 3 6 10 9 6 6 5 5 5 6 5 5 6 6 6 7 8 8 9 9 10 10 10 10 9 9 8
8 7 6 5 4 4 3 3 2 1 1 1 1 2 3 4 5 7 8 4 6 6 5 5 5 5 5 5 6 7 8 8 9 9 9 9 9 10 9 9 8 11 8
7 11 9 5 4 4 3 3 2 2 1 1 1 1 2 3 3 4 4 3 4 5 5 6 5 5 5 6 7 8 8 8 10 9 9 9 9 9 10 11 10 9 8
6 8 11 6 4 4 3 3 2 1 1 1 0 1 2 2 3 4 3 3 3 4 5 5 5 6 6 6 8 10 10 9 8 9 9 9 9 9 8 9 9 9 8
5 5 5 5 4 4 3 3 2 2 2 1 1 1 2 1 1 2 3 3 3 3 4 4 5 6 6 8 9 9 10 9 9 9 9 9 9 9 9 8 8 8 8
5 5 5 4 4 4 4 3 3 3 3 3 2 2 1 1 1 1 2 2 2 3 3 4 5 6 6 6 7 9 10 10 10 11 10 9 9 8 8 9 10 9 9
6 5 5 4 4 4 4 4 4 4 4 4 3 2 2 1 1 1 2 2 3 4 4 4 5 8 9 7 7 7 8 9 10 10 13 11 10 8 8 8 9 10 9
5 5 4 4 4 4 4 4 4 4 4 4 3 3 3 2 2 2 3 3 5 5 6 5 5 7 10 11 9 8 10 12 10 10 10 9 10 9 9 9 8 8 8
6 5 4 3 3 3 3 3 3 4 4 4 4 4 4 4 4 4 3 4 4 5 5 5 7 9 10 9 11 12 11 11 11 11 9 8 9 8 9 7 9 8 9
Wind_Direction
273 268 265 261 253 245 238 238 235 236 234 233 236 240 243 243 239 237 252 264 249 239 227 214 215 202 200 199 196 194 199 201 226 237 204 143 121 118 100 91 86 83 87
276 275 270 267 262 254 248 243 235 232 231 229 229 231 238 241 234 229 232 237 242 250 246 231 224 211 207 200 195 199 200 200 209 221 201 168 142 138 120 105 93 86 85
283 279 277 274 267 261 255 249 238 232 231 227 221 224 230 233 232 232 231 227 225 229 240 243 237 220 215 204 199 201 200 199 202 204 196 167 138 139 124 108 101 93 88
290 285 281 277 272 266 261 254 246 236 230 229 224 222 224 225 228 231 230 230 226 223 226 235 241 231 224 212 205 203 195 194 197 199 192 172 151 143 136 131 119 103 95
294 290 285 282 279 275 269 259 250 240 236 229 226 225 223 221 224 223 223 225 223 224 226 233 243 244 238 220 206 200 192 192 192 197 191 176 165 160 153 139 130 115 87
291 290 290 288 285 281 277 270 259 249 240 228 224 223 221 224 222 217 211 217 217 221 230 234 245 250 245 230 216 204 194 191 193 194 192 188 177 162 148 146 142 139 126
289 289 288 287 284 281 280 277 267 258 249 236 227 222 221 223 222 221 218 209 214 218 224 231 245 244 241 235 221 210 206 204 199 194 193 189 175 166 158 156 157 141 127
291 289 287 285 284 280 276 273 268 262 255 246 235 225 222 225 221 222 223 214 213 221 222 223 234 247 239 224 213 207 209 210 207 206 203 192 176 166 163 153 140 113 101
294 291 289 284 281 278 274 269 265 260 256 250 241 227 220 226 220 218 215 202 213 224 226 225 228 241 241 223 209 207 210 213 209 204 196 177 160 155 149 139 140 139 133
298 295 291 285 281 277 271 268 263 255 252 250 242 231 220 223 222 217 206 193 208 221 227 229 231 238 240 220 210 204 207 200 179 173 170 161 158 158 157 158 156 152 143
303 299 296 290 283 276 270 265 260 254 251 245 238 230 221 221 226 220 204 189 199 210 218 222 224 235 241 224 210 209 206 184 174 168 162 160 159 160 161 156 158 159 155
307 305 302 297 290 286 274 267 258 251 247 241 232 229 222 220 222 221 207 200 194 198 210 212 213 221 240 227 211 206 189 176 170 165 161 161 161 161 158 151 146 138 113
311 311 308 304 298 290 281 274 263 246 235 230 223 225 222 214 220 220 210 206 202 198 205 199 201 209 222 223 217 195 181 179 173 169 166 161 156 152 143 133 122 108 93
315 315 314 311 309 303 291 278 262 242 229 223 217 218 217 211 211 206 201 201 201 201 196 189 185 187 197 209 193 189 189 183 174 169 157 143 139 144 146 144 143 139 125
318 317 319 316 314 313 309 298 277 251 230 222 219 211 205 214 216 200 189 188 183 181 166 167 173 179 187 197 190 182 179 172 165 151 148 146 147 147 147 148 146 147 146
321 322 320 320 319 318 319 323 323 282 263 240 230 217 219 225 222 204 201 189 172 161 159 175 184 188 191 194 186 174 171 167 158 151 150 149 150 149 146 148 153 158 154
320 318 316 320 323 326 326 324 324 351 46 56 240 230 228 226 209 187 176 165 162 161 170 181 185 192 193 193 182 170 162 160 153 151 148 147 145 147 149 154 158 157 153
322 321 324 319 322 324 325 323 319 326 350 37 43 53 171 185 172 157 149 144 153 172 186 187 191 191 188 188 176 163 155 152 150 145 143 143 145 146 149 153 157 156 151
322 321 321 320 323 323 323 326 334 352 38 58 63 58 84 114 126 147 156 162 167 180 190 194 195 188 183 179 166 156 154 154 148 142 142 143 145 146 147 150 149 148 147
320 327 335 330 334 340 342 350 6 22 37 62 87 104 121 127 139 157 175 177 177 184 190 191 190 184 177 168 155 150 149 147 144 141 144 145 146 148 149 150 152 157 160
320 325 335 336 340 341 345 352 2 8 16 44 113 136 151 156 160 168 175 186 190 188 185 181 177 170 165 155 149 148 147 146 146 146 146 147 148 147 148 151 155 158 154
323 324 329 334 342 355 359 4 9 15 16 35 57 87 122 130 146 155 173 188 191 187 176 162 155 155 153 148 146 146 147 149 150 149 148 148 148 147 148 150 152 154 155
328 335 342 348 353 0 13 21 28 30 31 38 56 82 110 113 120 144 156 163 165 160 150 141 135 136 138 139 147 152 155 156 155 152 148 148 149 150 151 154 157 158 165
336 343 351 358 9 17 24 28 30 33 34 40 50 60 65 68 87 107 131 143 142 138 135 134 136 144 146 145 151 156 154 150 149 151 151 151 152 153 155 159 165 172 174
348 353 1 8 18 25 32 34 32 33 36 37 38 43 45 50 62 76 94 112 126 135 141 144 146 152 155 154 151 147 141 140 144 147 149 149 153 156 159 163 164 165 167
356 359 2 10 17 27 37 39 33 32 35 35 36 43 44 46 51 59 71 91 109 120 128 135 140 144 147 148 143 137 138 140 141 144 149 150 152 158 161 163 167 169 170